Kenai, AK

4:16 AM AKDT on May 23, 2017 (GMT -0800)
Kenai Municipal

Weather History for PAEN - January, 2014

Change the Weather History Date:

Tuesday, January 14, 2014

  Actual Average Record
Temperature  
Mean Temperature 26 °F -  
Max Temperature 32 °F 20 °F 44 °F (1997)
Min Temperature 21 °F 1 °F -39 °F (1973)
Degree Days  
Heating Degree Days 38    
Moisture  
Dew Point 26 °F    
Average Humidity 92    
Maximum Humidity 100    
Minimum Humidity 75    
Precipitation  
Precipitation 0.00 in - - ()
Sea Level Pressure  
Sea Level Pressure 29.06 in    
Wind  
Wind Speed 18 mph (ESE)    
Max Wind Speed 32 mph    
Max Gust Speed 43 mph    
Visibility 6 miles    
Events Fog , Snow    
Averages and records for this station are not official NWS values.
T = Trace of Precipitation, MM = Missing Value Source: NWS Daily Summary

Daily Weather History Graph

Daily Weather History Graph

Search for Another Location

Airport or City:

Trip Planner

Search our weather history database for the weather conditions in past years. The results will help you decide how hot, cold, wet, or windy it might be!

Date:

Astronomy

Jan. 14, 2014 Rise Set
Actual Time 9:58 AM AKST 4:30 PM AKST
Civil Twilight 9:03 AM AKST 5:25 PM AKST
Nautical Twilight 8:08 AM AKST 6:20 PM AKST
Astronomical Twilight 7:17 AM AKST 7:11 PM AKST
Moon 3:56 PM AKST (1/14) 8:30 AM AKST (1/14)
Length of Visible Light 8h 21m
Length of Day
6h 32m
Waxing Gibbous, 98% of the Moon is Illuminated
Jan 14
Waxing Gibbous
Jan 15
Full
Jan 23
Last Quarter
Jan 30
New
Feb 6
First Quarter

Hourly Weather History & Observations

Time (AKST) Temp. Windchill Dew Point Humidity Pressure Visibility Wind Dir Wind Speed Gust Speed Precip Events Conditions
12:01 AM 21.2 °F 5.6 °F 19.4 °F 93% 29.06 in 7.0 mi NNE 20.7 mph - 0.00 in   Overcast
12:53 AM 21.9 °F 6.5 °F 19.0 °F 89% 29.05 in 10.0 mi NNE 20.7 mph - 0.00 in   Mostly Cloudy
1:53 AM 23.0 °F 8.7 °F 19.9 °F 88% 29.00 in 10.0 mi NE 18.4 mph - N/A   Scattered Clouds
3:53 AM 24.1 °F 9.8 °F 19.9 °F 84% 28.95 in 10.0 mi NNE 19.6 mph - N/A   Clear
4:53 AM 24.1 °F 10.1 °F 21.0 °F 88% 28.91 in 10.0 mi NNE 18.4 mph - N/A   Mostly Cloudy
5:53 AM 25.0 °F 9.5 °F 21.0 °F 85% 28.87 in 10.0 mi NE 24.2 mph - N/A   Scattered Clouds
6:53 AM 25.0 °F 13.1 °F 21.0 °F 85% 28.85 in 10.0 mi NE 13.8 mph - N/A   Overcast
7:36 AM 24.8 °F 12.4 °F 21.2 °F 86% 28.83 in 4.0 mi NE 15.0 mph - 0.00 in Snow Light Snow
7:44 AM 24.8 °F 12.4 °F 21.2 °F 86% 28.83 in 4.0 mi NNE 15.0 mph - 0.00 in Snow Light Snow
7:53 AM 25.0 °F 11.3 °F 23.0 °F 92% 28.84 in 4.0 mi NE 18.4 mph - 0.00 in Snow Light Snow
8:04 AM 24.8 °F 11.9 °F 23.0 °F 93% 28.83 in 5.0 mi NNE 16.1 mph - 0.00 in Snow Light Snow
8:21 AM 24.8 °F 11.1 °F 23.0 °F 93% 28.83 in 2.5 mi NNE 18.4 mph - 0.00 in Snow Light Snow
8:30 AM 24.8 °F 10.7 °F 24.8 °F 100% 28.83 in 1.2 mi NNE 19.6 mph - 0.00 in Snow Light Snow
8:53 AM 26.1 °F 12.0 °F 25.0 °F 96% 28.84 in 1.5 mi NNE 20.7 mph - 0.00 in Snow Light Snow
9:33 AM 26.6 °F 12.4 °F 24.8 °F 93% 28.83 in 2.0 mi North 21.9 mph - 0.00 in Snow Light Snow
9:38 AM 26.6 °F 13.4 °F 24.8 °F 93% 28.83 in 4.0 mi NNE 18.4 mph - 0.00 in Snow Light Snow
9:53 AM 26.1 °F 13.1 °F 25.0 °F 96% 28.84 in 5.0 mi NNE 17.3 mph 25.3 mph 0.00 in Snow Light Snow
10:23 AM 26.6 °F 14.7 °F 24.8 °F 93% 28.84 in 1.8 mi NNE 15.0 mph - 0.00 in Snow Light Snow
1:45 PM 28.4 °F 20.4 °F 28.4 °F 100% 29.00 in 0.8 mi SW 8.1 mph - 0.00 in Snow Light Snow
1:53 PM 28.9 °F 23.9 °F 28.9 °F 100% 29.02 in 0.5 mi WSW 4.6 mph - 0.00 in Fog , Snow Snow
2:00 PM 28.4 °F 21.2 °F 28.4 °F 100% 29.01 in 0.2 mi WSW 6.9 mph - 0.00 in Fog , Snow Heavy Snow
2:53 PM 30.0 °F 20.5 °F 30.0 °F 100% 29.09 in 10.0 mi SSW 11.5 mph - 0.00 in   Overcast
3:29 PM 30.2 °F 22.6 °F 30.2 °F 100% 29.11 in 10.0 mi South 8.1 mph - 0.00 in   Overcast
3:43 PM 30.2 °F 21.3 °F 30.2 °F 100% 29.11 in 2.5 mi South 10.4 mph - 0.00 in Snow Light Snow
3:53 PM 30.0 °F 20.5 °F 30.0 °F 100% 29.13 in 1.5 mi SSE 11.5 mph - 0.00 in Snow Light Snow
3:58 PM 30.2 °F 20.2 °F 30.2 °F 100% 29.12 in 2.0 mi SSE 12.7 mph - 0.00 in Snow Light Snow
4:08 PM 30.2 °F 20.2 °F 30.2 °F 100% 29.12 in 8.0 mi SSE 12.7 mph - 0.00 in   Overcast
4:14 PM 30.2 °F 20.2 °F 28.4 °F 93% 29.12 in 10.0 mi SSE 12.7 mph - 0.00 in   Overcast
4:28 PM 30.2 °F 19.3 °F 28.4 °F 93% 29.13 in 10.0 mi SSE 15.0 mph - 0.00 in   Scattered Clouds
4:53 PM 30.9 °F 19.1 °F 28.9 °F 92% 29.17 in 10.0 mi South 18.4 mph - 0.00 in   Scattered Clouds
5:53 PM 32.0 °F 18.6 °F 28.9 °F 88% 29.22 in 10.0 mi South 25.3 mph 36.8 mph N/A   Partly Cloudy
6:53 PM 32.0 °F 17.2 °F 30.0 °F 92% 29.28 in 10.0 mi South 32.2 mph 41.4 mph N/A   Partly Cloudy
7:41 PM 32.0 °F 17.2 °F 28.4 °F 87% 29.32 in 10.0 mi SSW 32.2 mph - N/A   Partly Cloudy
7:53 PM 32.0 °F 18.1 °F 28.0 °F 85% 29.34 in 10.0 mi SSW 27.6 mph 42.6 mph 0.00 in   Mostly Cloudy
8:53 PM 32.0 °F 17.6 °F 27.0 °F 82% 29.40 in 3.0 mi SSW 29.9 mph 38.0 mph 0.00 in   Haze
9:53 PM 32.0 °F 18.9 °F 27.0 °F 82% 29.47 in 8.0 mi South 24.2 mph 33.4 mph N/A   Scattered Clouds
10:53 PM 32.0 °F 18.9 °F 25.0 °F 75% 29.51 in 10.0 mi South 24.2 mph - N/A   Clear
11:53 PM 30.0 °F 18.3 °F 24.1 °F 79% 29.57 in 10.0 mi South 17.3 mph - N/A   Clear